Minerva Virgo — SXXT — position and weather

sailwx.info

Track history (hours):
 
Tides and Currents Weather Stations Pressure Air Temp Water Temp Dewpoint Dewpoint Depression Visibility Wind Speed Wind Dir Waves Ship Positions

Minerva Virgo

Last reported at 2014-Oct-30 04:31 UTC. Time now 2014-Oct-31 21:17 UTC.
Position N 41°25' E 029°42'.

Length 182 m; draft 8.2 m.

Type: Tanker. MMSI: 240730000.

Date/timePositionNaut miles runAvg speedWind from/ knotsBaromVisibWave heightAir tempDewpointWater temp
2014-Oct-30 04:31N 41°25' E 029°42'1212.0
2014-Oct-30 03:33N 41°21' E 029°27'29 9.7
2014-Oct-30 00:31N 41°00' E 028°60'9 9.4
2014-Oct-29 23:33N 40°53' E 028°53'15 3.5
2014-Oct-29 19:22N 40°44' E 028°38'5 0.8
2014-Oct-29 12:30N 40°47' E 028°43'8 1.9
2014-Oct-29 08:24N 40°50' E 028°53'3 3.9
2014-Oct-29 07:33N 40°50' E 028°48'9810.7
2014-Oct-28 22:24N 40°25' E 026°44'181 6.9
2014-Oct-27 20:07N 37°55' E 024°35'611.6
2014-Oct-27 19:33N 37°50' E 024°30'1712.7
2014-Oct-27 18:12N 37°39' E 024°12'913.3
2014-Oct-27 17:33N 37°32' E 024°06'  
2014-Oct-24 12:33N 38°48' E 009°37'1211.7
2014-Oct-24 11:33N 38°54' E 009°24'1111.4
2014-Oct-24 10:33N 39°02' E 009°14'9 8.6
2014-Oct-24 09:31N 39°05' E 009°03'0 0.0
2014-Oct-24 08:31N 39°05' E 009°03'0 0.0
2014-Oct-24 07:31N 39°05' E 009°03'0 0.0
2014-Oct-24 06:31N 39°05' E 009°03'0 0.0
2014-Oct-24 05:31N 39°05' E 009°03'0 0.0
2014-Oct-24 04:31N 39°05' E 009°03'0 0.0
2014-Oct-24 03:31N 39°05' E 009°03'0 0.0
2014-Oct-24 02:28N 39°05' E 009°03'0 0.0
2014-Oct-24 01:31N 39°05' E 009°03'0 0.0
2014-Oct-24 00:31N 39°05' E 009°03'0 0.0
2014-Oct-23 23:31N 39°05' E 009°03'0 0.0
2014-Oct-23 22:31N 39°05' E 009°03'0 0.0
2014-Oct-23 21:31N 39°05' E 009°03'0 0.0
2014-Oct-23 20:31N 39°05' E 009°03'0 0.0
2014-Oct-23 19:31N 39°05' E 009°03'0 0.0
2014-Oct-23 18:31N 39°05' E 009°03'0 0.0
2014-Oct-23 17:31N 39°05' E 009°03'0 0.0
2014-Oct-23 16:31N 39°05' E 009°03'0 0.0
2014-Oct-23 15:28N 39°05' E 009°03'0 0.0
2014-Oct-23 14:31N 39°05' E 009°03'0 0.0
2014-Oct-23 13:31N 39°05' E 009°03'0 0.0
2014-Oct-23 12:31N 39°05' E 009°03'0 0.0
2014-Oct-23 11:31N 39°05' E 009°03'1 1.3
2014-Oct-23 10:33N 39°06' E 009°05'0 0.4
2014-Oct-23 09:33N 39°06' E 009°04'0 0.0
2014-Oct-23 08:33N 39°05' E 009°04'0 0.0
2014-Oct-23 07:33N 39°06' E 009°04'0 0.0
2014-Oct-23 06:33N 39°05' E 009°04'0 0.1
2014-Oct-23 05:33N 39°05' E 009°04'0 0.0
2014-Oct-23 04:33N 39°05' E 009°04'0 0.0
2014-Oct-23 03:33N 39°05' E 009°04'0 0.1
2014-Oct-23 02:33N 39°05' E 009°04'0 0.0
2014-Oct-23 01:33N 39°05' E 009°04'0 0.0
2014-Oct-23 00:33N 39°05' E 009°04'0 0.0
2014-Oct-22 23:33N 39°05' E 009°04'0 0.0
2014-Oct-22 22:33N 39°05' E 009°04'0 0.0
2014-Oct-22 21:33N 39°05' E 009°04'0 0.0
2014-Oct-22 20:33N 39°05' E 009°04'0 0.1
2014-Oct-22 19:33N 39°05' E 009°04'0 0.1
2014-Oct-22 18:33N 39°06' E 009°04'4 3.7
2014-Oct-22 17:32N 39°02' E 009°07'1211.9
2014-Oct-22 16:32N 38°51' E 009°13'9 9.2
2014-Oct-22 15:33N 38°43' E 009°17'0 0.1
2014-Oct-22 14:33N 38°43' E 009°17'1 0.6
2014-Oct-22 13:32N 38°43' E 009°17'1 1.3
2014-Oct-22 12:32N 38°45' E 009°16'1 1.5
2014-Oct-22 11:33N 38°46' E 009°15'2 1.6
2014-Oct-22 10:33N 38°47' E 009°14'2 1.7
2014-Oct-22 09:33N 38°49' E 009°13'1 1.5
2014-Oct-22 08:33N 38°50' E 009°11'1 1.2
2014-Oct-22 07:33N 38°50' E 009°10'1 0.6
2014-Oct-22 06:32N 38°51' E 009°10'1 0.5
2014-Oct-22 05:29N 38°51' E 009°09'0 0.5
2014-Oct-22 04:32N 38°51' E 009°09'1010.3
2014-Oct-22 03:33N 39°02' E 009°10'6 6.1
2014-Oct-22 02:31N 39°05' E 009°03'0 0.0
2014-Oct-22 01:31N 39°05' E 009°03'0 0.0
2014-Oct-22 00:31N 39°05' E 009°03'0 0.0
2014-Oct-21 23:31N 39°05' E 009°03'0 0.0
2014-Oct-21 22:31N 39°05' E 009°03'0 0.0
2014-Oct-21 21:31N 39°05' E 009°03'0 0.0
2014-Oct-21 20:31N 39°05' E 009°03'0 0.0
2014-Oct-21 19:31N 39°05' E 009°03'0 0.0
2014-Oct-21 18:31N 39°05' E 009°03'0 0.0
2014-Oct-21 17:31N 39°05' E 009°03'0 0.0
2014-Oct-21 16:31N 39°05' E 009°03'0 0.0
2014-Oct-21 15:31N 39°05' E 009°03'0 0.0
2014-Oct-21 14:31N 39°05' E 009°03'0 0.0
2014-Oct-21 13:31N 39°05' E 009°03'0 0.0
2014-Oct-21 12:31N 39°05' E 009°03'0 0.0
2014-Oct-21 11:33N 39°05' E 009°03'3 2.9
2014-Oct-21 10:33N 39°03' E 009°06'7 6.6
2014-Oct-21 09:33N 38°58' E 009°12'1110.9
2014-Oct-21 08:33N 38°50' E 009°21'1111.0
2014-Oct-21 07:33N 38°42' E 009°30'1110.9
2014-Oct-21 06:33N 38°33' E 009°38'1110.9
2014-Oct-21 05:33N 38°25' E 009°47'1111.1
2014-Oct-21 04:32N 38°16' E 009°56'1111.2
2014-Oct-21 03:32N 38°07' E 010°06'1111.2
2014-Oct-21 02:33N 37°59' E 010°15'1411.1
2014-Oct-21 01:18N 37°48' E 010°26'810.8
2014-Oct-21 00:31N 37°43' E 010°34'  
Track history (hours):
 
Tides and Currents Weather Stations Pressure Air Temp Water Temp Dewpoint Dewpoint Depression Visibility Wind Speed Wind Dir Waves Ship Positions

Minerva Virgo

Last reported at 2014-Oct-30 04:31 UTC. Time now 2014-Oct-31 21:17 UTC.
Position N 41°25' E 029°42'.

Length 182 m; draft 8.2 m.

Type: Tanker. MMSI: 240730000.

Date/timePositionNaut miles runAvg speedWind from/ knotsBaromVisibWave heightAir tempDewpointWater temp
2014-Oct-30 04:31N 41°25' E 029°42'1212.0
2014-Oct-30 03:33N 41°21' E 029°27'29 9.7
2014-Oct-30 00:31N 41°00' E 028°60'9 9.4
2014-Oct-29 23:33N 40°53' E 028°53'15 3.5
2014-Oct-29 19:22N 40°44' E 028°38'5 0.8
2014-Oct-29 12:30N 40°47' E 028°43'8 1.9
2014-Oct-29 08:24N 40°50' E 028°53'3 3.9
2014-Oct-29 07:33N 40°50' E 028°48'9810.7
2014-Oct-28 22:24N 40°25' E 026°44'181 6.9
2014-Oct-27 20:07N 37°55' E 024°35'611.6
2014-Oct-27 19:33N 37°50' E 024°30'1712.7
2014-Oct-27 18:12N 37°39' E 024°12'913.3
2014-Oct-27 17:33N 37°32' E 024°06'  
2014-Oct-24 12:33N 38°48' E 009°37'1211.7
2014-Oct-24 11:33N 38°54' E 009°24'1111.4
2014-Oct-24 10:33N 39°02' E 009°14'9 8.6
2014-Oct-24 09:31N 39°05' E 009°03'0 0.0
2014-Oct-24 08:31N 39°05' E 009°03'0 0.0
2014-Oct-24 07:31N 39°05' E 009°03'0 0.0
2014-Oct-24 06:31N 39°05' E 009°03'0 0.0
2014-Oct-24 05:31N 39°05' E 009°03'0 0.0
2014-Oct-24 04:31N 39°05' E 009°03'0 0.0
2014-Oct-24 03:31N 39°05' E 009°03'0 0.0
2014-Oct-24 02:28N 39°05' E 009°03'0 0.0
2014-Oct-24 01:31N 39°05' E 009°03'0 0.0
2014-Oct-24 00:31N 39°05' E 009°03'0 0.0
2014-Oct-23 23:31N 39°05' E 009°03'0 0.0
2014-Oct-23 22:31N 39°05' E 009°03'0 0.0
2014-Oct-23 21:31N 39°05' E 009°03'0 0.0
2014-Oct-23 20:31N 39°05' E 009°03'0 0.0
2014-Oct-23 19:31N 39°05' E 009°03'0 0.0
2014-Oct-23 18:31N 39°05' E 009°03'0 0.0
2014-Oct-23 17:31N 39°05' E 009°03'0 0.0
2014-Oct-23 16:31N 39°05' E 009°03'0 0.0
2014-Oct-23 15:28N 39°05' E 009°03'0 0.0
2014-Oct-23 14:31N 39°05' E 009°03'0 0.0
2014-Oct-23 13:31N 39°05' E 009°03'0 0.0
2014-Oct-23 12:31N 39°05' E 009°03'0 0.0
2014-Oct-23 11:31N 39°05' E 009°03'1 1.3
2014-Oct-23 10:33N 39°06' E 009°05'0 0.4
2014-Oct-23 09:33N 39°06' E 009°04'0 0.0
2014-Oct-23 08:33N 39°05' E 009°04'0 0.0
2014-Oct-23 07:33N 39°06' E 009°04'0 0.0
2014-Oct-23 06:33N 39°05' E 009°04'0 0.1
2014-Oct-23 05:33N 39°05' E 009°04'0 0.0
2014-Oct-23 04:33N 39°05' E 009°04'0 0.0
2014-Oct-23 03:33N 39°05' E 009°04'0 0.1
2014-Oct-23 02:33N 39°05' E 009°04'0 0.0
2014-Oct-23 01:33N 39°05' E 009°04'0 0.0
2014-Oct-23 00:33N 39°05' E 009°04'0 0.0
2014-Oct-22 23:33N 39°05' E 009°04'0 0.0
2014-Oct-22 22:33N 39°05' E 009°04'0 0.0
2014-Oct-22 21:33N 39°05' E 009°04'0 0.0
2014-Oct-22 20:33N 39°05' E 009°04'0 0.1
2014-Oct-22 19:33N 39°05' E 009°04'0 0.1
2014-Oct-22 18:33N 39°06' E 009°04'4 3.7
2014-Oct-22 17:32N 39°02' E 009°07'1211.9
2014-Oct-22 16:32N 38°51' E 009°13'9 9.2
2014-Oct-22 15:33N 38°43' E 009°17'0 0.1
2014-Oct-22 14:33N 38°43' E 009°17'1 0.6
2014-Oct-22 13:32N 38°43' E 009°17'1 1.3
2014-Oct-22 12:32N 38°45' E 009°16'1 1.5
2014-Oct-22 11:33N 38°46' E 009°15'2 1.6
2014-Oct-22 10:33N 38°47' E 009°14'2 1.7
2014-Oct-22 09:33N 38°49' E 009°13'1 1.5
2014-Oct-22 08:33N 38°50' E 009°11'1 1.2
2014-Oct-22 07:33N 38°50' E 009°10'1 0.6
2014-Oct-22 06:32N 38°51' E 009°10'1 0.5
2014-Oct-22 05:29N 38°51' E 009°09'0 0.5
2014-Oct-22 04:32N 38°51' E 009°09'1010.3
2014-Oct-22 03:33N 39°02' E 009°10'6 6.1
2014-Oct-22 02:31N 39°05' E 009°03'0 0.0
2014-Oct-22 01:31N 39°05' E 009°03'0 0.0
2014-Oct-22 00:31N 39°05' E 009°03'0 0.0
2014-Oct-21 23:31N 39°05' E 009°03'0 0.0
2014-Oct-21 22:31N 39°05' E 009°03'0 0.0
2014-Oct-21 21:31N 39°05' E 009°03'0 0.0
2014-Oct-21 20:31N 39°05' E 009°03'0 0.0
2014-Oct-21 19:31N 39°05' E 009°03'0 0.0
2014-Oct-21 18:31N 39°05' E 009°03'0 0.0
2014-Oct-21 17:31N 39°05' E 009°03'0 0.0
2014-Oct-21 16:31N 39°05' E 009°03'0 0.0
2014-Oct-21 15:31N 39°05' E 009°03'0 0.0
2014-Oct-21 14:31N 39°05' E 009°03'0 0.0
2014-Oct-21 13:31N 39°05' E 009°03'0 0.0
2014-Oct-21 12:31N 39°05' E 009°03'0 0.0
2014-Oct-21 11:33N 39°05' E 009°03'3 2.9
2014-Oct-21 10:33N 39°03' E 009°06'7 6.6
2014-Oct-21 09:33N 38°58' E 009°12'1110.9
2014-Oct-21 08:33N 38°50' E 009°21'1111.0
2014-Oct-21 07:33N 38°42' E 009°30'1110.9
2014-Oct-21 06:33N 38°33' E 009°38'1110.9
2014-Oct-21 05:33N 38°25' E 009°47'1111.1
2014-Oct-21 04:32N 38°16' E 009°56'1111.2
2014-Oct-21 03:32N 38°07' E 010°06'1111.2
2014-Oct-21 02:33N 37°59' E 010°15'1411.1
2014-Oct-21 01:18N 37°48' E 010°26'810.8
2014-Oct-21 00:31N 37°43' E 010°34'  

Dump ship's entire track history